Wise, VA

9:58 AM EDT on July 27, 2017 (GMT -0400)
Lonesome Pine

Weather History for KLNP - October, 2012

Change the Weather History Date:

Monday, October 29, 2012

  Actual Average Record
Temperature  
Mean Temperature 33 °F -  
Max Temperature 33 °F 59 °F 73 °F (1999)
Min Temperature 32 °F 41 °F 28 °F (2005)
Degree Days  
Heating Degree Days 32    
Moisture  
Dew Point 34 °F    
Average Humidity 100    
Maximum Humidity 100    
Minimum Humidity 100    
Precipitation  
Precipitation 0.01 in - - ()
Sea Level Pressure  
Sea Level Pressure 29.78 in    
Wind  
Wind Speed 11 mph (NW)    
Max Wind Speed 21 mph    
Max Gust Speed 32 mph    
Visibility 2 miles    
Events Snow    
Averages and records for this station are not official NWS values.
T = Trace of Precipitation, MM = Missing Value Source: NWS Daily Summary

Daily Weather History Graph

Daily Weather History Graph

Search for Another Location

Airport or City:

Trip Planner

Search our weather history database for the weather conditions in past years. The results will help you decide how hot, cold, wet, or windy it might be!

Date:

Astronomy

Oct. 29, 2012 Rise Set
Actual Time 7:51 AM EDT 6:35 PM EDT
Civil Twilight 7:24 AM EDT 7:02 PM EDT
Nautical Twilight 6:54 AM EDT 7:32 PM EDT
Astronomical Twilight 6:24 AM EDT 8:02 PM EDT
Moon 6:27 PM EDT (10/29) 7:40 AM EDT (10/29)
Length of Visible Light 11h 37m
Length of Day
10h 43m
Full, 100% of the Moon is Illuminated
Oct 29
Full
Oct 29
Full
Nov 6
Last Quarter
Nov 13
New
Nov 20
First Quarter

Hourly Weather History & Observations

Time (EDT) Temp. Windchill Dew Point Humidity Pressure Visibility Wind Dir Wind Speed Gust Speed Precip Events Conditions
12:15 AM 33.8 °F 25.3 °F 33.8 °F 100% 29.88 in 4.0 mi NNW 11.5 mph - N/A Snow Light Snow
12:35 AM 33.8 °F 25.8 °F 33.8 °F 100% 29.88 in 4.0 mi NW 10.4 mph 16.1 mph N/A Snow Light Snow
12:55 AM 33.8 °F 27.0 °F 33.8 °F 100% 29.88 in 3.0 mi NW 8.1 mph 17.3 mph N/A Snow Light Snow
1:15 AM 33.8 °F 25.8 °F 33.8 °F 100% 29.88 in 3.0 mi NW 10.4 mph 19.6 mph N/A Snow Light Snow
1:35 AM 33.8 °F 26.4 °F 33.8 °F 100% 29.87 in 3.0 mi NNW 9.2 mph - N/A Snow Light Snow
1:55 AM 33.8 °F 26.4 °F 33.8 °F 100% 29.87 in 2.5 mi NW 9.2 mph - N/A Snow Light Snow
2:15 AM 33.8 °F 24.8 °F 33.8 °F 100% 29.87 in 2.5 mi NW 12.7 mph 17.3 mph N/A   Overcast
2:35 AM 33.8 °F 25.8 °F 33.8 °F 100% 29.86 in 3.0 mi NW 10.4 mph - N/A Snow Light Snow
2:55 AM 33.8 °F 27.0 °F 33.8 °F 100% 29.86 in 3.0 mi NNW 8.1 mph - N/A Snow Light Snow
3:15 AM 33.8 °F 27.7 °F 33.8 °F 100% 29.85 in 2.5 mi NW 6.9 mph - N/A Snow Light Snow
3:35 AM 33.8 °F 27.7 °F 33.8 °F 100% 29.85 in 2.5 mi NNW 6.9 mph - N/A Snow Light Snow
3:55 AM 33.8 °F 28.6 °F 33.8 °F 100% 29.84 in 2.5 mi NW 5.8 mph - N/A Snow Light Snow
4:15 AM 33.8 °F 28.6 °F 33.8 °F 100% 29.84 in 2.5 mi NW 5.8 mph 16.1 mph N/A Snow Light Snow
4:35 AM 33.8 °F 27.7 °F 33.8 °F 100% 29.83 in 3.0 mi NW 6.9 mph 16.1 mph N/A Snow Light Snow
4:55 AM 33.8 °F 25.8 °F 33.8 °F 100% 29.83 in 3.0 mi NW 10.4 mph 16.1 mph N/A Snow Light Snow
5:15 AM 33.8 °F 27.7 °F 33.8 °F 100% 29.83 in 3.0 mi NW 6.9 mph 17.3 mph N/A Snow Light Snow
5:35 AM 33.8 °F 25.3 °F 33.8 °F 100% 29.83 in 2.5 mi NW 11.5 mph 17.3 mph N/A Snow Light Snow
5:55 AM 33.8 °F 27.7 °F 33.8 °F 100% 29.83 in 2.0 mi NW 6.9 mph 16.1 mph N/A Snow Light Snow
6:15 AM 33.8 °F 26.4 °F 33.8 °F 100% 29.83 in 2.0 mi NW 9.2 mph 17.3 mph N/A Snow Light Snow
6:55 AM 33.8 °F 25.8 °F 33.8 °F 100% 29.83 in 2.5 mi NW 10.4 mph - N/A Snow Light Snow
7:15 AM 33.8 °F 27.0 °F 33.8 °F 100% 29.83 in 2.5 mi NW 8.1 mph 16.1 mph N/A Snow Light Snow
7:35 AM 33.8 °F 27.0 °F 33.8 °F 100% 29.83 in 2.5 mi WNW 8.1 mph - N/A Snow Light Snow
7:55 AM 33.8 °F 27.7 °F 33.8 °F 100% 29.83 in 1.8 mi NW 6.9 mph 16.1 mph N/A Snow Light Snow
8:15 AM 33.8 °F 25.3 °F 33.8 °F 100% 29.83 in 1.8 mi NW 11.5 mph 16.1 mph N/A Snow Light Snow
8:35 AM 33.8 °F 25.3 °F 33.8 °F 100% 29.82 in 1.5 mi NW 11.5 mph 17.3 mph N/A Snow Light Snow
8:55 AM 33.8 °F 27.0 °F 33.8 °F 100% 29.82 in 1.5 mi WNW 8.1 mph 18.4 mph N/A Snow Light Snow
9:15 AM 33.8 °F 25.8 °F 33.8 °F 100% 29.82 in 1.5 mi NW 10.4 mph 16.1 mph N/A Snow Light Snow
9:35 AM 33.8 °F 25.8 °F 33.8 °F 100% 29.82 in 1.2 mi NW 10.4 mph 18.4 mph N/A Snow Light Snow
9:55 AM 33.8 °F 26.4 °F 33.8 °F 100% 29.82 in 1.5 mi NW 9.2 mph 17.3 mph N/A Snow Light Snow
10:15 AM 33.8 °F 25.3 °F 33.8 °F 100% 29.81 in 1.2 mi NW 11.5 mph 19.6 mph N/A Snow Light Snow
10:35 AM 33.8 °F 25.3 °F 33.8 °F 100% 29.81 in 1.5 mi NW 11.5 mph 17.3 mph N/A Snow Light Snow
10:55 AM 33.8 °F 23.9 °F 33.8 °F 100% 29.81 in 1.5 mi NW 15.0 mph 19.6 mph N/A Snow Light Snow
11:15 AM 33.8 °F 27.7 °F 33.8 °F 100% 29.80 in 1.2 mi NW 6.9 mph 17.3 mph N/A Snow Light Snow
11:35 AM 33.8 °F 24.3 °F 33.8 °F 100% 29.80 in 2.0 mi NW 13.8 mph 21.9 mph N/A Snow Light Snow
11:55 AM 33.8 °F 24.3 °F 33.8 °F 100% 29.80 in 1.5 mi NW 13.8 mph 24.2 mph N/A Snow Light Snow
12:15 PM 33.8 °F 24.3 °F 33.8 °F 100% 29.79 in 1.5 mi WNW 13.8 mph 21.9 mph N/A Snow Light Snow
12:35 PM 33.8 °F 24.3 °F 33.8 °F 100% 29.79 in 1.2 mi NW 13.8 mph 21.9 mph N/A Snow Light Snow
12:55 PM 33.8 °F 26.4 °F 33.8 °F 100% 29.78 in 1.2 mi NW 9.2 mph 17.3 mph N/A Snow Light Snow
1:35 PM 33.8 °F 26.4 °F 33.8 °F 100% 29.77 in 1.8 mi NW 9.2 mph 18.4 mph N/A Snow Light Snow
1:55 PM 33.8 °F 25.8 °F 33.8 °F 100% 29.76 in 1.2 mi WNW 10.4 mph 32.2 mph N/A Snow Light Snow
2:15 PM 33.8 °F 25.3 °F 33.8 °F 100% 29.75 in 1.2 mi WNW 11.5 mph 20.7 mph N/A Snow Light Snow
2:35 PM 33.8 °F 25.3 °F 33.8 °F 100% 29.75 in 1.0 mi WNW 11.5 mph 19.6 mph N/A Snow Light Snow
2:55 PM 33.8 °F 24.3 °F 33.8 °F 100% 29.74 in 1.2 mi WNW 13.8 mph 24.2 mph N/A Snow Light Snow
3:15 PM 33.8 °F 25.3 °F 33.8 °F 100% 29.74 in 1.2 mi WNW 11.5 mph 21.9 mph N/A Snow Light Snow
3:35 PM 33.8 °F 24.3 °F 33.8 °F 100% 29.73 in 1.0 mi NW 13.8 mph 19.6 mph N/A Snow Light Snow
4:15 PM 33.8 °F 25.3 °F 33.8 °F 100% 29.72 in 1.2 mi WNW 11.5 mph 20.7 mph N/A Snow Light Snow
4:35 PM 33.8 °F 26.4 °F 33.8 °F 100% 29.71 in 1.0 mi NW 9.2 mph 19.6 mph N/A Snow Light Snow
4:55 PM 33.8 °F 25.3 °F 33.8 °F 100% 29.71 in 1.2 mi WNW 11.5 mph 23.0 mph N/A Snow Light Snow
5:15 PM 33.8 °F 24.3 °F 33.8 °F 100% 29.70 in 1.2 mi WNW 13.8 mph 20.7 mph N/A Snow Light Snow
5:35 PM 33.8 °F 23.9 °F 33.8 °F 100% 29.70 in 1.0 mi WNW 15.0 mph 25.3 mph N/A Snow Light Snow
5:55 PM 33.8 °F 23.9 °F 33.8 °F 100% 29.69 in 1.2 mi WNW 15.0 mph 24.2 mph N/A Snow Light Snow
6:15 PM 33.8 °F 23.9 °F 33.8 °F 100% 29.68 in 1.0 mi WNW 15.0 mph 23.0 mph N/A Snow Light Snow
6:35 PM 33.8 °F 23.9 °F 33.8 °F 100% 29.68 in 1.0 mi WNW 15.0 mph 23.0 mph 0.01 in Snow Light Snow
6:55 PM 33.8 °F 23.2 °F 33.8 °F 100% 29.68 in 0.8 mi WNW 17.3 mph 26.5 mph 0.01 in Snow Light Snow
7:15 PM 33.8 °F 24.8 °F 33.8 °F 100% 29.67 in 1.5 mi WNW 12.7 mph 26.5 mph N/A Snow Light Snow
7:35 PM 33.8 °F 23.9 °F 33.8 °F 100% 29.67 in 1.2 mi WNW 15.0 mph 25.3 mph N/A Snow Light Snow
7:55 PM 33.8 °F 22.2 °F 33.8 °F 100% 29.66 in 1.2 mi WNW 20.7 mph 28.8 mph N/A Snow Light Snow
8:15 PM 33.8 °F 22.8 °F 33.8 °F 100% 29.66 in 1.0 mi WNW 18.4 mph 27.6 mph N/A Snow Snow
8:35 PM 33.8 °F 22.8 °F 33.8 °F 100% 29.65 in 1.0 mi WNW 18.4 mph 27.6 mph N/A Snow Light Snow
11:55 PM 32.0 °F 21.2 °F 32.0 °F 100% 29.61 in 1.0 mi WNW 16.1 mph 32.2 mph N/A Snow Snow